Tracking 19176 objects as of 25-May-2018
HD Live streaming from Space Station
objects crossing your sky now

COSMOS 1943

Track COSMOS 1943 now!
10-day predictions
COSMOS 1943 is classified as:


NORAD ID: 19119
Int'l Code: 1988-039A
Perigee: 839.2 km
Apogee: 858.9 km
Inclination: 71.0 °
Period: 101.8 minutes
Semi major axis: 7220 km
RCS: 13.147 m2 (large)
Launch date: May 15, 1988
Source: Commonwealth of Independent States (former USSR) (CIS)
Launch site: TYURATAM MISSILE AND SPACE COMPLEX (TTMTR)
aabbcc
Your satellite tracking list
Your tracking list is empty




NASA's NSSDC Master Catalog

Two Line Element Set (TLE):
1 19119U 88039A   18144.93902503 +.00000212 +00000-0 +13388-3 0  9999
2 19119 071.0023 104.0825 0013621 259.0710 156.2972 14.15112417550170
Source of the keplerian elements: AFSPC